Погода в Климове

Россия / Чувашская Республика     59°11′42″N   34°41′19″E
темп.,
°C
ветер,
м/с
пор.,
м/с
влажн.,
%
обл.,
%
осадки,
мм/ч
давл.,
гПа
погр.,
м
15 апреля, чт
чт1500:00+3с288487 0.0 1023305
03:00+1с3109086 0.0 1024289
06:00+1ссв31190100 0.0 1025324
09:00+4св487379 0.0 1026533
12:00+8св575691 0.0 10261033
15:00+9св5749100 0.0 10261248
18:00+7всв4859100 0.0 10261062
21:00+4всв41267100 0.0 1028616
16 апреля, пт
пт1600:00+3всв4127195 0.0 1028510
03:00+2всв4127673 0.0 1028408
06:00+1всв4137775 0.0 1028410
09:00+5всв5115738 0.0 1029602
12:00+9всв584063 0.0 10291033
15:00+11всв573484 0.0 10291265
18:00+10всв484595 0.0 10291129
21:00+6всв4126330 0.0 1030450
17 апреля, сб
сб1700:00+4всв4136933 0.0 1031388
03:00+2всв312745 0.0 1032321
06:00+1всв3127517 0.0 1032300
09:00+7в49535 0.0 1032555
12:00+11в57390 0.0 10321202
15:00+13в46355 0.0 10311461
18:00+11в35430 0.0 10311260
21:00+5св39700 0.0 1032204
18 апреля, вс
вс1800:00+3всв27720 0.0 1033133
03:00+2всв24790 0.0 103375
06:00+1всв24820 0.0 103477
09:00+7в25575 0.0 1033430
12:00+11в34403 0.0 10331462
15:00+13в343620 0.0 10321789
18:00+12в34455 0.0 10321323
21:00+6в26677 0.0 1033109
19 апреля, пн
пн1900:00+4в227818 0.0 103339
03:00+3в228350 0.0 103424
06:00+3вюв2582100 0.0 1034120
09:00+8вюв356299 0.0 1033404
12:00+12вюв455194 0.0 10331300
15:00+13юв4545100 0.0 10311965
18:00+11юв365592 0.0 1031726
21:00+6вюв39755 0.0 1031266